Voltar ao catálogo

COSMOS 970 DEB

AtivoLEO
NORAD 13505·DEBRIS·🇷🇺 Russia

Lançado Dec 21, 1977 de Baikonur Cosmodrome

Loading…

Próximas Passagens (próximas 24 horas)

TLE

AtualizadoSource: Space-Track

Época: Sep 14, 2026, 23:11 UTC

1 13505U 77121BC  26257.96610741  .00000865  00000-0  12360-2 0  9991
2 13505  65.3540 239.9751 0010370  48.3039 342.7650 13.61502420704319

Acompanhe COSMOS 970 DEB em tempo real com AllMySat

Download on the App Store